QPF
0.03 0.03 0.03 0.02 0.02 0.01 0.01 0.01 0.01 0.01 0.02 0.02 0.01 0.01 0.01 0.01 0.00 0.00 0.01 0.00 0.00 0.02 0.04 0.04 0.03 0.03 0.03 0.02 0.02 0.02 0.04 0.05 0.05 0.03 0.03 0.03 0.02 0.02 0.01 0.01 0.01 0.01 0.02
0.02 0.02 0.02 0.02 0.02 0.02 0.02 0.02 0.01 0.02 0.02 0.02 0.01 0.01 0.01 0.01 0.01 0.01 0.01 0.01 0.01 0.02 0.04 0.04 0.04 0.04 0.03 0.02 0.02 0.02 0.02 0.02 0.02 0.02 0.03 0.03 0.03 0.02 0.02 0.02 0.02 0.02 0.02
0.01 0.01 0.01 0.01 0.02 0.02 0.02 0.02 0.01 0.02 0.02 0.01 0.01 0.01 0.01 0.01 0.01 0.01 0.01 0.01 0.02 0.03 0.03 0.03 0.04 0.04 0.04 0.02 0.02 0.02 0.02 0.02 0.02 0.02 0.03 0.03 0.02 0.02 0.02 0.02 0.02 0.03 0.02
0.01 0.01 0.01 0.01 0.02 0.02 0.02 0.02 0.03 0.03 0.02 0.02 0.02 0.02 0.01 0.01 0.01 0.01 0.01 0.02 0.03 0.03 0.02 0.03 0.03 0.02 0.02 0.02 0.02 0.01 0.01 0.02 0.03 0.03 0.03 0.03 0.02 0.02 0.01 0.02 0.02 0.01 0.02
0.01 0.01 0.01 0.01 0.01 0.01 0.01 0.02 0.05 0.07 0.06 0.05 0.04 0.03 0.01 0.01 0.01 0.01 0.02 0.03 0.03 0.03 0.02 0.02 0.03 0.02 0.01 0.01 0.01 0.02 0.02 0.02 0.03 0.02 0.02 0.02 0.03 0.03 0.02 0.01 0.01 0.01 0.01
0.02 0.02 0.02 0.01 0.01 0.01 0.01 0.01 0.01 0.03 0.04 0.05 0.05 0.03 0.02 0.01 0.01 0.02 0.02 0.03 0.03 0.02 0.02 0.02 0.02 0.02 0.02 0.02 0.02 0.02 0.02 0.03 0.02 0.02 0.02 0.02 0.02 0.03 0.02 0.01 0.01 0.01 0.01
0.02 0.02 0.02 0.01 0.01 0.01 0.01 0.01 0.01 0.01 0.00 0.01 0.01 0.01 0.01 0.01 0.01 0.02 0.02 0.02 0.02 0.01 0.01 0.01 0.01 0.02 0.03 0.02 0.02 0.02 0.02 0.03 0.02 0.02 0.03 0.03 0.02 0.03 0.03 0.01 0.01 0.01 0.01
0.01 0.01 0.01 0.00 0.00 0.00 0.01 0.01 0.01 0.01 0.01 0.00 0.00 0.00 0.00 0.01 0.01 0.03 0.02 0.02 0.02 0.01 0.01 0.01 0.01 0.01 0.02 0.02 0.01 0.01 0.01 0.01 0.01 0.02 0.02 0.02 0.02 0.02 0.03 0.03 0.02 0.02 0.01
0.02 0.01 0.00 0.00 0.00 0.00 0.00 0.00 0.00 0.01 0.01 0.00 0.00 0.01 0.01 0.02 0.03 0.03 0.02 0.03 0.02 0.01 0.02 0.01 0.01 0.02 0.02 0.03 0.01 0.01 0.01 0.00 0.01 0.01 0.02 0.02 0.03 0.03 0.03 0.02 0.01 0.01 0.01
0.03 0.02 0.01 0.00 0.00 0.00 0.00 0.00 0.00 0.01 0.01 0.01 0.00 0.01 0.01 0.01 0.01 0.02 0.03 0.03 0.01 0.01 0.01 0.01 0.01 0.03 0.03 0.03 0.01 0.01 0.01 0.01 0.00 0.01 0.01 0.02 0.03 0.03 0.02 0.01 0.00 0.00 0.01
0.02 0.01 0.01 0.01 0.00 0.00 0.00 0.00 0.00 0.00 0.01 0.01 0.01 0.01 0.01 0.01 0.01 0.02 0.02 0.02 0.01 0.01 0.01 0.01 0.01 0.03 0.03 0.02 0.02 0.01 0.01 0.01 0.01 0.01 0.01 0.01 0.02 0.02 0.01 0.00 0.00 0.00 0.01
0.03 0.01 0.01 0.01 0.01 0.01 0.01 0.01 0.00 0.00 0.00 0.00 0.01 0.01 0.01 0.01 0.00 0.01 0.01 0.02 0.01 0.01 0.01 0.01 0.01 0.02 0.02 0.01 0.01 0.01 0.01 0.01 0.02 0.01 0.01 0.01 0.01 0.01 0.01 0.01 0.01 0.01 0.01
0.05 0.03 0.01 0.01 0.00 0.00 0.00 0.00 0.00 0.00 0.00 0.00 0.00 0.00 0.00 0.00 0.00 0.00 0.01 0.01 0.02 0.01 0.01 0.01 0.02 0.02 0.02 0.02 0.01 0.01 0.01 0.01 0.01 0.01 0.01 0.01 0.01 0.01 0.01 0.00 0.01 0.01 0.01
0.05 0.04 0.02 0.01 0.01 0.01 0.00 0.00 0.00 0.00 0.00 0.00 0.01 0.01 0.00 0.00 0.00 0.00 0.01 0.02 0.03 0.02 0.01 0.01 0.01 0.01 0.01 0.02 0.01 0.02 0.02 0.02 0.01 0.01 0.01 0.00 0.00 0.01 0.01 0.00 0.00 0.01 0.01
0.05 0.05 0.03 0.02 0.02 0.01 0.00 0.00 0.00 0.00 0.00 0.00 0.00 0.01 0.02 0.01 0.01 0.00 0.00 0.01 0.02 0.02 0.01 0.00 0.00 0.00 0.01 0.01 0.01 0.01 0.02 0.01 0.01 0.01 0.00 0.00 0.00 0.01 0.00 0.01 0.01 0.01 0.01
0.03 0.04 0.03 0.03 0.02 0.01 0.00 0.00 0.00 0.00 0.00 0.00 0.00 0.01 0.01 0.01 0.01 0.01 0.00 0.00 0.01 0.01 0.01 0.00 0.00 0.00 0.00 0.01 0.01 0.01 0.01 0.00 0.00 0.00 0.00 0.00 0.00 0.00 0.00 0.01 0.01 0.01 0.01
0.01 0.02 0.02 0.02 0.02 0.01 0.01 0.00 0.00 0.00 0.00 0.00 0.00 0.01 0.01 0.01 0.01 0.00 0.00 0.00 0.00 0.00 0.00 0.00 0.00 0.00 0.00 0.00 0.00 0.00 0.00 0.00 0.00 0.00 0.00 0.00 0.00 0.00 0.00 0.01 0.01 0.01 0.01
0.01 0.02 0.02 0.01 0.01 0.00 0.00 0.00 0.00 0.00 0.00 0.00 0.00 0.00 0.00 0.00 0.00 0.00 0.00 0.00 0.00 0.00 0.00 0.00 0.00 0.00 0.00 0.00 0.00 0.00 0.00 0.00 0.00 0.00 0.00 0.00 0.00 0.00 0.00 0.00 0.00 0.00 0.00
0.01 0.01 0.01 0.01 0.01 0.00 0.00 0.00 0.00 0.00 0.00 0.00 0.00 0.00 0.00 0.00 0.00 0.00 0.00 0.00 0.00 0.00 0.00 0.00 0.00 0.00 0.00 0.00 0.00 0.00 0.00 0.00 0.00 0.00 0.00 0.00 0.00 0.00 0.00 0.00 0.00 0.00 0.00
0.02 0.01 0.00 0.01 0.01 0.01 0.00 0.00 0.00 0.00 0.00 0.00 0.00 0.00 0.00 0.00 0.00 0.00 0.00 0.00 0.00 0.00 0.00 0.00 0.00 0.00 0.00 0.00 0.00 0.00 0.00 0.00 0.00 0.00 0.00 0.00 0.00 0.00 0.00 0.00 0.01 0.01 0.01
0.00 0.00 0.00 0.00 0.00 0.00 0.00 0.00 0.00 0.00 0.00 0.00 0.00 0.00 0.00 0.00 0.00 0.00 0.00 0.00 0.00 0.00 0.00 0.00 0.00 0.00 0.00 0.00 0.00 0.00 0.00 0.00 0.01 0.01 0.01 0.01 0.01 0.01 0.02 0.02 0.02 0.02 0.02
0.01 0.01 0.00 0.00 0.00 0.00 0.00 0.00 0.00 0.00 0.00 0.00 0.00 0.00 0.00 0.00 0.00 0.00 0.00 0.00 0.00 0.00 0.00 0.00 0.00 0.00 0.00 0.00 0.00 0.01 0.01 0.01 0.01 0.01 0.02 0.02 0.02 0.01 0.01 0.01 0.01 0.01 0.01
0.00 0.01 0.00 0.00 0.00 0.00 0.00 0.00 0.00 0.00 0.00 0.00 0.00 0.00 0.00 0.00 0.00 0.00 0.00 0.00 0.00 0.00 0.00 0.01 0.00 0.00 0.00 0.00 0.00 0.00 0.00 0.01 0.01 0.01 0.01 0.01 0.02 0.02 0.02 0.02 0.01 0.01 0.01
0.00 0.00 0.00 0.00 0.00 0.00 0.00 0.00 0.00 0.00 0.00 0.00 0.00 0.00 0.00 0.00 0.00 0.00 0.00 0.00 0.00 0.00 0.00 0.00 0.00 0.00 0.00 0.00 0.00 0.00 0.01 0.01 0.01 0.01 0.01 0.02 0.02 0.02 0.02 0.02 0.03 0.03 0.02
0.00 0.00 0.00 0.00 0.00 0.00 0.00 0.00 0.00 0.00 0.00 0.00 0.00 0.00 0.00 0.00 0.00 0.00 0.00 0.01 0.01 0.00 0.00 0.00 0.00 0.00 0.00 0.01 0.01 0.01 0.01 0.01 0.01 0.02 0.02 0.02 0.02 0.02 0.02 0.02 0.02 0.02 0.02
0.00 0.00 0.00 0.00 0.00 0.00 0.00 0.00 0.00 0.00 0.00 0.00 0.00 0.00 0.00 0.00 0.00 0.00 0.01 0.00 0.00 0.00 0.01 0.01 0.00 0.01 0.01 0.01 0.01 0.01 0.01 0.01 0.01 0.02 0.02 0.02 0.02 0.01 0.01 0.02 0.02 0.02 0.02
MSLP
1022.69 1022.77 1022.88 1022.99 1023.07 1023.08 1023.03 1022.90 1022.71 1022.47 1022.22 1021.95 1021.70 1021.45 1021.22 1020.99 1020.75 1020.49 1020.22 1019.92 1019.59 1019.25 1018.88 1018.51 1018.14 1017.79 1017.49 1017.24 1017.09 1017.05 1017.13 1017.34 1017.67 1018.09 1018.57 1019.06 1019.51 1019.87 1020.11 1020.21 1020.15 1019.96 1019.65
1022.75 1022.83 1022.94 1023.04 1023.12 1023.14 1023.11 1023.01 1022.85 1022.64 1022.40 1022.14 1021.87 1021.60 1021.33 1021.05 1020.77 1020.48 1020.18 1019.87 1019.53 1019.17 1018.80 1018.41 1018.02 1017.64 1017.29 1017.01 1016.82 1016.75 1016.81 1017.01 1017.34 1017.79 1018.31 1018.85 1019.37 1019.82 1020.16 1020.36 1020.43 1020.36 1020.17
1022.75 1022.84 1022.93 1023.02 1023.09 1023.11 1023.08 1022.99 1022.85 1022.67 1022.45 1022.21 1021.94 1021.66 1021.38 1021.08 1020.79 1020.48 1020.17 1019.85 1019.52 1019.17 1018.80 1018.40 1018.00 1017.59 1017.22 1016.90 1016.67 1016.55 1016.58 1016.75 1017.07 1017.51 1018.04 1018.62 1019.18 1019.69 1020.11 1020.41 1020.58 1020.62 1020.56
1022.69 1022.78 1022.87 1022.93 1022.97 1022.98 1022.94 1022.85 1022.73 1022.56 1022.37 1022.14 1021.89 1021.63 1021.35 1021.06 1020.77 1020.47 1020.17 1019.86 1019.54 1019.20 1018.84 1018.45 1018.04 1017.63 1017.23 1016.87 1016.60 1016.44 1016.42 1016.55 1016.84 1017.25 1017.77 1018.34 1018.92 1019.46 1019.93 1020.30 1020.55 1020.69 1020.74
1022.57 1022.66 1022.73 1022.77 1022.77 1022.75 1022.68 1022.59 1022.47 1022.33 1022.15 1021.96 1021.74 1021.50 1021.24 1020.97 1020.69 1020.41 1020.13 1019.84 1019.54 1019.22 1018.87 1018.49 1018.09 1017.67 1017.25 1016.88 1016.57 1016.37 1016.30 1016.38 1016.61 1016.97 1017.45 1018.00 1018.57 1019.11 1019.61 1020.02 1020.33 1020.55 1020.68
1022.39 1022.48 1022.52 1022.53 1022.49 1022.43 1022.35 1022.25 1022.13 1022.00 1021.85 1021.69 1021.49 1021.28 1021.05 1020.80 1020.54 1020.28 1020.01 1019.74 1019.45 1019.15 1018.82 1018.45 1018.05 1017.63 1017.21 1016.82 1016.49 1016.25 1016.14 1016.17 1016.35 1016.67 1017.09 1017.60 1018.14 1018.68 1019.17 1019.60 1019.95 1020.22 1020.41
1022.15 1022.23 1022.25 1022.22 1022.16 1022.07 1021.97 1021.86 1021.75 1021.64 1021.52 1021.38 1021.22 1021.03 1020.81 1020.58 1020.33 1020.07 1019.81 1019.53 1019.25 1018.95 1018.62 1018.27 1017.87 1017.46 1017.04 1016.64 1016.30 1016.05 1015.91 1015.91 1016.05 1016.32 1016.71 1017.18 1017.69 1018.21 1018.69 1019.12 1019.49 1019.78 1020.01
1021.88 1021.93 1021.93 1021.89 1021.81 1021.70 1021.60 1021.49 1021.40 1021.31 1021.21 1021.09 1020.95 1020.78 1020.57 1020.34 1020.08 1019.80 1019.52 1019.23 1018.93 1018.62 1018.29 1017.93 1017.54 1017.13 1016.72 1016.33 1016.00 1015.75 1015.61 1015.60 1015.72 1015.98 1016.34 1016.79 1017.28 1017.77 1018.25 1018.68 1019.05 1019.35 1019.59
1021.59 1021.63 1021.61 1021.56 1021.47 1021.37 1021.28 1021.19 1021.12 1021.05 1020.97 1020.87 1020.74 1020.58 1020.36 1020.11 1019.83 1019.53 1019.22 1018.89 1018.56 1018.22 1017.87 1017.49 1017.10 1016.70 1016.31 1015.94 1015.63 1015.40 1015.28 1015.28 1015.42 1015.68 1016.04 1016.48 1016.96 1017.45 1017.92 1018.34 1018.70 1019.00 1019.23
1021.33 1021.35 1021.33 1021.28 1021.20 1021.12 1021.04 1020.98 1020.93 1020.88 1020.82 1020.74 1020.62 1020.44 1020.22 1019.95 1019.64 1019.31 1018.95 1018.59 1018.22 1017.85 1017.47 1017.08 1016.68 1016.28 1015.90 1015.56 1015.27 1015.08 1014.99 1015.03 1015.19 1015.47 1015.85 1016.30 1016.79 1017.28 1017.74 1018.15 1018.50 1018.78 1018.99
1021.14 1021.15 1021.13 1021.08 1021.01 1020.95 1020.90 1020.86 1020.83 1020.80 1020.76 1020.68 1020.56 1020.38 1020.14 1019.86 1019.53 1019.17 1018.78 1018.39 1017.99 1017.59 1017.18 1016.77 1016.37 1015.97 1015.61 1015.29 1015.04 1014.88 1014.83 1014.90 1015.10 1015.40 1015.80 1016.27 1016.76 1017.24 1017.70 1018.10 1018.43 1018.69 1018.87
1021.04 1021.04 1021.02 1020.97 1020.92 1020.87 1020.83 1020.81 1020.79 1020.76 1020.72 1020.64 1020.52 1020.34 1020.10 1019.81 1019.48 1019.12 1018.73 1018.33 1017.92 1017.50 1017.08 1016.67 1016.26 1015.87 1015.51 1015.20 1014.98 1014.84 1014.82 1014.92 1015.14 1015.47 1015.88 1016.34 1016.83 1017.30 1017.74 1018.12 1018.42 1018.65 1018.80
1021.05 1021.03 1020.99 1020.95 1020.90 1020.85 1020.81 1020.77 1020.74 1020.71 1020.65 1020.57 1020.44 1020.26 1020.04 1019.77 1019.46 1019.12 1018.76 1018.38 1017.98 1017.58 1017.17 1016.76 1016.36 1015.97 1015.62 1015.33 1015.11 1014.99 1014.98 1015.09 1015.31 1015.63 1016.03 1016.47 1016.93 1017.38 1017.78 1018.12 1018.39 1018.58 1018.69
1021.13 1021.09 1021.04 1020.98 1020.91 1020.84 1020.78 1020.71 1020.65 1020.57 1020.49 1020.38 1020.25 1020.08 1019.88 1019.64 1019.38 1019.10 1018.79 1018.47 1018.13 1017.77 1017.39 1017.01 1016.62 1016.25 1015.90 1015.61 1015.39 1015.27 1015.25 1015.34 1015.53 1015.82 1016.18 1016.58 1016.99 1017.38 1017.73 1018.02 1018.24 1018.39 1018.47
1021.24 1021.18 1021.11 1021.03 1020.93 1020.82 1020.70 1020.58 1020.45 1020.32 1020.19 1020.05 1019.90 1019.73 1019.56 1019.38 1019.18 1018.97 1018.75 1018.51 1018.24 1017.95 1017.63 1017.29 1016.93 1016.58 1016.25 1015.96 1015.73 1015.59 1015.55 1015.60 1015.75 1015.99 1016.28 1016.61 1016.95 1017.27 1017.54 1017.77 1017.94 1018.04 1018.09
1021.34 1021.26 1021.17 1021.05 1020.90 1020.74 1020.55 1020.35 1020.15 1019.94 1019.74 1019.55 1019.37 1019.21 1019.06 1018.93 1018.80 1018.67 1018.54 1018.39 1018.21 1018.00 1017.75 1017.47 1017.16 1016.84 1016.53 1016.25 1016.02 1015.86 1015.79 1015.80 1015.90 1016.06 1016.28 1016.53 1016.78 1017.01 1017.21 1017.37 1017.48 1017.54 1017.56
1021.37 1021.29 1021.17 1021.02 1020.83 1020.60 1020.34 1020.06 1019.76 1019.47 1019.20 1018.94 1018.73 1018.55 1018.41 1018.31 1018.24 1018.18 1018.13 1018.06 1017.97 1017.84 1017.67 1017.45 1017.20 1016.92 1016.64 1016.38 1016.16 1016.00 1015.91 1015.88 1015.93 1016.03 1016.17 1016.33 1016.50 1016.65 1016.77 1016.86 1016.92 1016.95 1016.95
1021.32 1021.24 1021.11 1020.93 1020.70 1020.41 1020.08 1019.72 1019.34 1018.97 1018.61 1018.29 1018.02 1017.82 1017.67 1017.58 1017.54 1017.53 1017.53 1017.53 1017.51 1017.45 1017.34 1017.18 1016.99 1016.77 1016.53 1016.31 1016.12 1015.97 1015.87 1015.83 1015.84 1015.89 1015.97 1016.07 1016.16 1016.24 1016.30 1016.34 1016.36 1016.35 1016.34
1021.18 1021.10 1020.97 1020.78 1020.52 1020.20 1019.82 1019.40 1018.95 1018.50 1018.07 1017.68 1017.36 1017.11 1016.93 1016.83 1016.79 1016.79 1016.82 1016.85 1016.86 1016.85 1016.79 1016.69 1016.55 1016.39 1016.21 1016.04 1015.88 1015.77 1015.69 1015.65 1015.65 1015.67 1015.72 1015.77 1015.81 1015.85 1015.86 1015.86 1015.85 1015.83 1015.81
1020.95 1020.88 1020.77 1020.59 1020.33 1019.99 1019.58 1019.12 1018.63 1018.12 1017.64 1017.19 1016.81 1016.51 1016.29 1016.15 1016.08 1016.06 1016.08 1016.10 1016.12 1016.12 1016.09 1016.03 1015.94 1015.82 1015.70 1015.59 1015.49 1015.42 1015.38 1015.36 1015.37 1015.40 1015.43 1015.46 1015.48 1015.48 1015.48 1015.46 1015.43 1015.41 1015.38
1020.65 1020.61 1020.52 1020.36 1020.12 1019.79 1019.38 1018.91 1018.39 1017.86 1017.33 1016.85 1016.42 1016.06 1015.79 1015.60 1015.47 1015.41 1015.38 1015.37 1015.37 1015.36 1015.33 1015.28 1015.22 1015.15 1015.08 1015.02 1014.98 1014.96 1014.97 1014.99 1015.02 1015.06 1015.10 1015.13 1015.14 1015.13 1015.12 1015.09 1015.07 1015.04 1015.02
1020.30 1020.29 1020.23 1020.10 1019.89 1019.59 1019.21 1018.75 1018.24 1017.70 1017.16 1016.64 1016.18 1015.78 1015.45 1015.19 1015.01 1014.87 1014.78 1014.72 1014.67 1014.62 1014.57 1014.52 1014.47 1014.43 1014.39 1014.38 1014.39 1014.41 1014.46 1014.52 1014.59 1014.65 1014.69 1014.73 1014.74 1014.74 1014.73 1014.71 1014.68 1014.66 1014.65
1019.89 1019.91 1019.89 1019.80 1019.63 1019.36 1019.01 1018.59 1018.10 1017.58 1017.04 1016.52 1016.03 1015.60 1015.22 1014.91 1014.65 1014.45 1014.29 1014.16 1014.04 1013.94 1013.86 1013.78 1013.72 1013.68 1013.67 1013.68 1013.72 1013.78 1013.85 1013.94 1014.03 1014.10 1014.16 1014.20 1014.22 1014.22 1014.21 1014.19 1014.17 1014.15 1014.14
1019.41 1019.46 1019.47 1019.42 1019.29 1019.06 1018.76 1018.37 1017.91 1017.42 1016.90 1016.38 1015.89 1015.43 1015.02 1014.66 1014.35 1014.08 1013.85 1013.65 1013.47 1013.31 1013.17 1013.06 1012.98 1012.92 1012.91 1012.92 1012.97 1013.04 1013.13 1013.23 1013.32 1013.41 1013.46 1013.50 1013.52 1013.52 1013.51 1013.49 1013.47 1013.44 1013.42
1018.86 1018.93 1018.96 1018.94 1018.84 1018.65 1018.38 1018.02 1017.61 1017.14 1016.65 1016.15 1015.66 1015.20 1014.77 1014.38 1014.03 1013.70 1013.41 1013.14 1012.90 1012.69 1012.50 1012.34 1012.22 1012.14 1012.10 1012.11 1012.15 1012.22 1012.31 1012.40 1012.49 1012.56 1012.61 1012.65 1012.65 1012.64 1012.62 1012.59 1012.56 1012.53 1012.49
1018.21 1018.29 1018.34 1018.33 1018.25 1018.09 1017.84 1017.52 1017.13 1016.70 1016.24 1015.77 1015.29 1014.84 1014.41 1014.00 1013.62 1013.26 1012.92 1012.61 1012.31 1012.05 1011.81 1011.61 1011.45 1011.34 1011.28 1011.27 1011.29 1011.35 1011.42 1011.50 1011.58 1011.64 1011.68 1011.69 1011.68 1011.65 1011.61 1011.57 1011.52 1011.46 1011.41
Thickness
5599 5595 5592 5588 5585 5582 5579 5577 5575 5574 5573 5572 5571 5571 5570 5569 5570 5570 5572 5574 5575 5577 5579 5581 5583 5584 5586 5587 5588 5588 5589 5590 5589 5588 5587 5587 5588 5590 5591 5593 5594 5596 5598
5593 5589 5585 5582 5578 5575 5573 5570 5569 5567 5566 5565 5564 5563 5563 5562 5562 5563 5564 5566 5567 5570 5572 5575 5576 5578 5579 5580 5581 5582 5582 5583 5584 5583 5582 5581 5582 5583 5584 5586 5587 5589 5590
5587 5583 5579 5576 5572 5569 5566 5565 5563 5562 5560 5559 5558 5557 5556 5556 5556 5557 5558 5559 5561 5563 5566 5568 5570 5572 5573 5574 5575 5575 5576 5577 5578 5578 5576 5575 5575 5576 5577 5579 5580 5582 5583
5583 5578 5574 5570 5567 5565 5562 5560 5558 5556 5554 5553 5552 5551 5550 5550 5551 5552 5553 5554 5555 5558 5560 5563 5565 5567 5568 5569 5570 5570 5570 5571 5571 5572 5571 5570 5569 5570 5571 5572 5573 5574 5576
5578 5574 5570 5567 5563 5560 5558 5555 5553 5551 5550 5548 5547 5546 5546 5546 5546 5547 5548 5549 5551 5553 5555 5557 5559 5562 5563 5564 5565 5565 5565 5566 5566 5566 5565 5565 5565 5565 5566 5566 5567 5568 5569
5574 5570 5567 5564 5560 5557 5554 5551 5549 5547 5545 5544 5543 5542 5542 5542 5543 5543 5544 5545 5547 5548 5549 5552 5554 5556 5558 5559 5560 5561 5562 5562 5562 5562 5562 5562 5561 5561 5561 5562 5562 5564 5565
5571 5568 5564 5561 5557 5554 5551 5548 5545 5543 5541 5540 5539 5539 5539 5539 5540 5541 5542 5542 5543 5544 5545 5547 5550 5552 5553 5555 5556 5557 5558 5558 5559 5560 5559 5559 5559 5559 5559 5559 5559 5560 5562
5569 5566 5563 5559 5555 5552 5548 5546 5543 5541 5539 5537 5537 5537 5537 5538 5538 5539 5540 5540 5540 5541 5542 5543 5545 5547 5549 5550 5551 5553 5554 5555 5556 5557 5557 5557 5557 5557 5556 5557 5557 5557 5558
5567 5564 5561 5558 5554 5550 5547 5544 5542 5539 5538 5536 5535 5535 5535 5536 5537 5537 5538 5538 5538 5539 5540 5541 5542 5544 5545 5546 5548 5549 5551 5552 5554 5554 5555 5555 5555 5555 5555 5554 5554 5556 5558
5566 5563 5560 5556 5552 5549 5546 5544 5541 5539 5537 5536 5535 5534 5534 5534 5535 5536 5536 5536 5536 5537 5538 5540 5541 5542 5543 5544 5545 5547 5548 5550 5551 5552 5552 5553 5553 5554 5554 5553 5554 5554 5556
5565 5562 5559 5555 5552 5549 5546 5543 5541 5539 5537 5536 5535 5535 5534 5534 5534 5535 5535 5534 5535 5536 5537 5538 5540 5541 5542 5543 5544 5545 5547 5548 5549 5550 5551 5552 5553 5553 5554 5553 5553 5554 5555
5564 5561 5557 5554 5552 5550 5546 5543 5541 5539 5537 5536 5535 5535 5535 5535 5535 5535 5535 5535 5535 5535 5536 5538 5539 5540 5542 5543 5544 5546 5547 5547 5548 5549 5550 5551 5552 5553 5554 5554 5554 5554 5554
5563 5559 5556 5554 5551 5549 5546 5544 5541 5539 5537 5536 5535 5535 5535 5536 5536 5536 5536 5536 5536 5536 5537 5538 5539 5540 5542 5544 5545 5546 5547 5547 5548 5549 5550 5551 5552 5552 5553 5554 5554 5554 5555
5562 5559 5556 5553 5551 5549 5547 5545 5542 5541 5539 5538 5537 5537 5536 5536 5537 5538 5537 5537 5537 5538 5538 5539 5540 5542 5543 5544 5545 5547 5548 5548 5548 5550 5551 5551 5552 5552 5553 5553 5554 5555 5555
5561 5558 5556 5554 5551 5549 5548 5546 5545 5544 5542 5541 5540 5539 5538 5539 5540 5540 5539 5539 5539 5539 5539 5540 5542 5543 5545 5547 5547 5548 5549 5549 5549 5550 5551 5551 5552 5553 5554 5554 5553 5554 5554
5561 5558 5556 5554 5552 5550 5549 5549 5549 5548 5547 5546 5544 5543 5542 5543 5543 5543 5542 5542 5541 5540 5540 5541 5543 5545 5546 5547 5548 5550 5551 5552 5552 5552 5552 5552 5553 5554 5555 5555 5554 5554 5555
5562 5560 5557 5555 5553 5552 5551 5550 5550 5552 5552 5551 5550 5548 5547 5547 5547 5546 5546 5545 5544 5543 5542 5544 5546 5547 5548 5549 5550 5551 5553 5554 5554 5554 5554 5554 5554 5555 5555 5556 5556 5555 5556
5564 5561 5559 5557 5555 5554 5553 5552 5552 5552 5553 5555 5555 5554 5553 5552 5551 5550 5548 5547 5548 5547 5546 5548 5549 5550 5551 5552 5553 5554 5555 5556 5556 5556 5556 5556 5556 5556 5556 5556 5557 5556 5557
5566 5564 5562 5560 5558 5557 5556 5555 5555 5555 5555 5556 5558 5559 5558 5557 5556 5554 5552 5550 5552 5553 5553 5552 5553 5554 5555 5555 5556 5556 5557 5557 5558 5557 5558 5558 5558 5557 5557 5557 5558 5557 5555
5570 5568 5566 5564 5562 5561 5560 5560 5559 5559 5559 5560 5561 5562 5561 5560 5559 5559 5557 5555 5555 5557 5557 5557 5558 5558 5558 5559 5559 5559 5558 5559 5559 5559 5559 5559 5558 5557 5557 5558 5558 5557 5557
5574 5572 5570 5568 5566 5565 5565 5564 5564 5564 5564 5564 5566 5566 5564 5563 5563 5563 5563 5562 5562 5562 5562 5562 5562 5561 5561 5561 5561 5561 5560 5560 5560 5560 5560 5559 5558 5558 5557 5557 5556 5556 5556
5578 5576 5574 5573 5571 5570 5569 5569 5568 5568 5568 5569 5570 5571 5569 5567 5567 5567 5567 5568 5567 5566 5565 5564 5564 5564 5564 5563 5563 5562 5561 5561 5561 5560 5559 5558 5557 5557 5556 5556 5555 5555 5554
5582 5580 5578 5577 5575 5574 5573 5573 5572 5572 5572 5572 5573 5573 5573 5572 5571 5571 5571 5571 5570 5570 5568 5567 5566 5566 5566 5565 5563 5562 5561 5562 5561 5560 5558 5557 5557 5556 5556 5555 5554 5553 5553
5586 5584 5582 5581 5579 5578 5577 5577 5576 5576 5576 5575 5575 5575 5575 5575 5574 5574 5574 5573 5572 5571 5569 5568 5567 5566 5566 5564 5563 5562 5561 5560 5559 5557 5556 5555 5554 5554 5553 5552 5552 5551 5551
5590 5588 5586 5585 5583 5581 5580 5580 5579 5579 5578 5578 5578 5577 5577 5576 5575 5575 5574 5573 5571 5570 5569 5568 5566 5565 5564 5563 5562 5560 5559 5557 5555 5553 5552 5551 5550 5549 5549 5548 5548 5547 5546
5594 5592 5590 5588 5586 5584 5583 5582 5582 5581 5580 5580 5579 5578 5577 5576 5575 5575 5573 5572 5570 5569 5568 5566 5565 5563 5562 5560 5559 5557 5555 5554 5552 5550 5547 5545 5545 5544 5543 5542 5542 5541 5541